TAP240 LPPR-LPPT

Flight info

Callsign TAP240
Flight time 0h 40m
Altitude 33000
Route MANIK DCT ABRIL DCT XAMAX
Aircraft A320/M-SDE3FGHIRWY/LB1

Departure

Time 2026-05-03 22:59
Airport Francisco de Sá Carneiro Airport (LPPR)

Arrival

Time 2026-05-03 23:39
Airport Lisbon Humberto Delgado Airport (LPPT)
Time Latitude Longitude Altitude Speed Heading
2026-05-03 22:19 41.23687 -8.67247 235 ft 0 kts 78°
2026-05-03 22:46 41.23685 -8.67260 240 ft 3 kts 82°
2026-05-03 22:46 41.23683 -8.67292 237 ft 3 kts 94°
2026-05-03 22:47 41.23687 -8.67324 239 ft 3 kts 109°
2026-05-03 22:47 41.23697 -8.67352 240 ft 3 kts 129°
2026-05-03 22:47 41.23706 -8.67366 240 ft 0 kts 138°
2026-05-03 22:51 41.23702 -8.67361 240 ft 3 kts 140°
2026-05-03 22:51 41.23670 -8.67341 238 ft 7 kts 165°
2026-05-03 22:51 41.23619 -8.67329 235 ft 7 kts 178°
2026-05-03 22:52 41.23554 -8.67362 236 ft 11 kts 211°
2026-05-03 22:52 41.23485 -8.67386 235 ft 10 kts 173°
2026-05-03 22:52 41.23422 -8.67369 235 ft 9 kts 169°
2026-05-03 22:52 41.23368 -8.67368 238 ft 7 kts 197°
2026-05-03 22:53 41.23339 -8.67411 235 ft 6 kts 247°
2026-05-03 22:53 41.23330 -8.67454 236 ft 4 kts 257°
2026-05-03 22:53 41.23325 -8.67486 235 ft 3 kts 258°
2026-05-03 22:53 41.23321 -8.67508 235 ft 2 kts 258°
2026-05-03 22:54 41.23319 -8.67520 235 ft 0 kts 258°
2026-05-03 22:55 41.23318 -8.67528 235 ft 5 kts 258°
2026-05-03 22:55 41.23310 -8.67580 235 ft 5 kts 259°
2026-05-03 22:56 41.23307 -8.67600 235 ft 0 kts 259°
2026-05-03 22:57 41.23307 -8.67601 235 ft 1 kts 259°
2026-05-03 22:57 41.23300 -8.67649 239 ft 9 kts 259°
2026-05-03 22:58 41.23310 -8.67725 240 ft 8 kts 320°
2026-05-03 22:58 41.23343 -8.67738 236 ft 1 kts 347°
2026-05-03 22:58 41.23438 -8.67765 236 ft 43 kts 349°
2026-05-03 22:58 41.23969 -8.67902 234 ft 108 kts 349°
2026-05-03 22:59 41.24882 -8.68144 243 ft 157 kts 348°
2026-05-03 22:59 41.25992 -8.68465 726 ft 167 kts 347°
2026-05-03 22:59 41.27132 -8.68772 1434 ft 169 kts 348°
2026-05-03 22:59 41.28337 -8.69080 1881 ft 187 kts 348°
2026-05-03 23:00 41.29690 -8.69428 2163 ft 211 kts 348°
2026-05-03 23:00 41.31216 -8.69824 2564 ft 236 kts 348°
2026-05-03 23:00 41.32861 -8.70250 3203 ft 249 kts 348°
2026-05-03 23:00 41.34581 -8.70693 4085 ft 254 kts 348°
2026-05-03 23:01 41.36333 -8.71150 4990 ft 259 kts 347°
2026-05-03 23:01 41.38109 -8.71619 5876 ft 262 kts 347°
2026-05-03 23:01 41.39833 -8.72398 6745 ft 263 kts 327°
2026-05-03 23:01 41.41138 -8.74089 7567 ft 266 kts 301°
2026-05-03 23:02 41.41731 -8.76424 8374 ft 271 kts 275°
2026-05-03 23:02 41.41529 -8.78931 9235 ft 275 kts 260°
2026-05-03 23:02 41.41020 -8.81390 10091 ft 279 kts 246°
2026-05-03 23:02 41.39847 -8.83453 10661 ft 295 kts 221°
2026-05-03 23:03 41.37935 -8.84690 10890 ft 324 kts 192°
2026-05-03 23:03 41.35598 -8.84634 11069 ft 351 kts 173°
2026-05-03 23:03 41.33129 -8.84055 11382 ft 367 kts 171°
2026-05-03 23:03 41.30615 -8.83349 12037 ft 372 kts 169°
2026-05-03 23:04 41.28078 -8.82600 12765 ft 375 kts 169°
2026-05-03 23:04 41.25522 -8.81854 13491 ft 377 kts 170°
2026-05-03 23:04 41.22949 -8.81127 14163 ft 380 kts 171°
2026-05-03 23:04 41.20351 -8.80419 14769 ft 382 kts 171°
2026-05-03 23:05 41.17731 -8.79726 15375 ft 385 kts 172°
2026-05-03 23:05 41.15092 -8.79038 15964 ft 388 kts 172°
2026-05-03 23:05 41.12434 -8.78345 16544 ft 391 kts 172°
2026-05-03 23:05 41.09754 -8.77646 17114 ft 394 kts 172°
2026-05-03 23:06 41.07092 -8.76950 17672 ft 397 kts 172°
2026-05-03 23:06 41.04404 -8.76037 18236 ft 402 kts 166°
2026-05-03 23:06 41.01726 -8.74930 18724 ft 405 kts 166°
2026-05-03 23:06 40.99033 -8.73818 19200 ft 407 kts 166°
2026-05-03 23:07 40.96316 -8.72699 19692 ft 409 kts 166°
2026-05-03 23:07 40.93595 -8.71582 20163 ft 411 kts 167°
2026-05-03 23:07 40.90864 -8.70462 20685 ft 411 kts 167°
2026-05-03 23:07 40.88125 -8.69340 21181 ft 413 kts 167°
2026-05-03 23:08 40.85372 -8.68217 21645 ft 415 kts 167°
2026-05-03 23:08 40.82604 -8.67087 22095 ft 417 kts 167°
2026-05-03 23:08 40.79861 -8.65966 22502 ft 420 kts 168°
2026-05-03 23:08 40.77068 -8.64824 22930 ft 422 kts 168°
2026-05-03 23:09 40.74261 -8.63679 23060 ft 425 kts 168°
2026-05-03 23:09 40.71396 -8.62516 23079 ft 436 kts 168°
2026-05-03 23:09 40.68439 -8.61585 23075 ft 437 kts 176°
2026-05-03 23:09 40.65426 -8.61152 23079 ft 435 kts 179°
2026-05-03 23:10 40.62409 -8.60790 23081 ft 436 kts 179°
2026-05-03 23:10 40.59391 -8.60428 23078 ft 436 kts 179°
2026-05-03 23:10 40.56374 -8.60062 23081 ft 436 kts 180°
2026-05-03 23:10 40.53391 -8.59699 23082 ft 436 kts 180°
2026-05-03 23:11 40.50375 -8.59329 23078 ft 436 kts 180°
2026-05-03 23:11 40.47353 -8.58960 23076 ft 436 kts 180°
2026-05-03 23:11 40.44331 -8.58594 23076 ft 436 kts 180°
2026-05-03 23:11 40.41311 -8.58232 23078 ft 436 kts 180°
2026-05-03 23:12 40.38293 -8.57871 23079 ft 436 kts 180°
2026-05-03 23:12 40.35273 -8.57506 23078 ft 436 kts 180°
2026-05-03 23:12 40.32252 -8.57139 23086 ft 436 kts 180°
2026-05-03 23:12 40.29232 -8.56773 23083 ft 436 kts 180°
2026-05-03 23:13 40.26219 -8.56411 23070 ft 436 kts 180°
2026-05-03 23:13 40.23197 -8.56050 23073 ft 436 kts 180°
2026-05-03 23:13 40.20179 -8.55689 23074 ft 436 kts 180°
2026-05-03 23:13 40.17163 -8.55321 23085 ft 435 kts 179°
2026-05-03 23:14 40.14186 -8.54955 23061 ft 435 kts 180°
2026-05-03 23:14 40.11186 -8.54891 23069 ft 428 kts 191°
2026-05-03 23:14 40.08332 -8.55804 23060 ft 419 kts 205°
2026-05-03 23:14 40.05728 -8.57475 23065 ft 417 kts 211°
2026-05-03 23:15 40.03156 -8.59232 23064 ft 417 kts 211°
2026-05-03 23:15 40.00586 -8.60998 23063 ft 418 kts 211°
2026-05-03 23:15 39.98017 -8.62766 23071 ft 417 kts 211°
2026-05-03 23:15 39.95449 -8.64529 23064 ft 418 kts 211°
2026-05-03 23:16 39.92877 -8.66287 23030 ft 418 kts 211°
2026-05-03 23:16 39.90302 -8.68042 23023 ft 417 kts 211°
2026-05-03 23:16 39.87727 -8.69791 23038 ft 417 kts 211°
2026-05-03 23:16 39.85152 -8.71538 23032 ft 418 kts 211°
2026-05-03 23:17 39.82574 -8.73290 23053 ft 418 kts 211°
2026-05-03 23:17 39.80001 -8.75042 23052 ft 418 kts 211°
2026-05-03 23:17 39.77461 -8.76774 23058 ft 418 kts 211°
2026-05-03 23:17 39.74892 -8.78523 23045 ft 418 kts 211°
2026-05-03 23:18 39.72312 -8.80272 23043 ft 417 kts 211°
2026-05-03 23:18 39.69738 -8.82016 23053 ft 417 kts 211°
2026-05-03 23:18 39.67162 -8.83760 23034 ft 418 kts 211°
2026-05-03 23:18 39.64585 -8.85503 23042 ft 418 kts 211°
2026-05-03 23:19 39.62003 -8.87243 23044 ft 418 kts 211°
2026-05-03 23:19 39.59421 -8.88978 23051 ft 418 kts 211°
2026-05-03 23:19 39.56840 -8.90714 23056 ft 418 kts 211°
2026-05-03 23:19 39.54261 -8.92452 23062 ft 418 kts 211°
2026-05-03 23:20 39.51683 -8.94188 23074 ft 418 kts 211°
2026-05-03 23:20 39.49104 -8.95925 23074 ft 418 kts 211°
2026-05-03 23:20 39.46527 -8.97656 23080 ft 418 kts 211°
2026-05-03 23:20 39.43982 -8.99364 23059 ft 418 kts 211°
2026-05-03 23:21 39.41401 -9.01095 23066 ft 418 kts 211°
2026-05-03 23:21 39.38809 -9.02836 22904 ft 422 kts 211°
2026-05-03 23:21 39.36206 -9.04585 22633 ft 421 kts 211°
2026-05-03 23:21 39.33606 -9.06327 22366 ft 421 kts 211°
2026-05-03 23:22 39.28423 -9.09785 21839 ft 418 kts 211°
2026-05-03 23:22 39.25841 -9.11511 21575 ft 417 kts 211°
2026-05-03 23:22 39.23286 -9.13215 20846 ft 412 kts 211°
2026-05-03 23:23 39.20748 -9.14905 20081 ft 408 kts 211°
2026-05-03 23:23 39.18237 -9.16573 19371 ft 405 kts 211°
2026-05-03 23:23 39.15740 -9.18233 18656 ft 402 kts 211°
2026-05-03 23:23 39.13295 -9.19859 17899 ft 400 kts 211°
2026-05-03 23:24 39.10839 -9.21492 17187 ft 395 kts 211°
2026-05-03 23:24 39.08409 -9.23107 16550 ft 391 kts 210°
2026-05-03 23:24 39.06001 -9.24706 15908 ft 387 kts 210°
2026-05-03 23:24 39.03619 -9.26287 15278 ft 384 kts 210°
2026-05-03 23:25 39.01258 -9.27854 14673 ft 380 kts 210°
2026-05-03 23:25 38.98920 -9.29406 14081 ft 377 kts 210°
2026-05-03 23:25 38.96594 -9.30946 13451 ft 374 kts 210°
2026-05-03 23:25 38.94291 -9.32466 12881 ft 369 kts 210°
2026-05-03 23:26 38.92021 -9.33961 12328 ft 365 kts 210°
2026-05-03 23:26 38.89772 -9.35444 11749 ft 361 kts 210°
2026-05-03 23:26 38.87553 -9.36909 11351 ft 353 kts 210°
2026-05-03 23:26 38.85415 -9.38315 11229 ft 338 kts 210°
2026-05-03 23:27 38.83395 -9.39643 11106 ft 324 kts 210°
2026-05-03 23:27 38.81438 -9.40926 10977 ft 305 kts 210°
2026-05-03 23:27 38.79617 -9.42118 10760 ft 286 kts 210°
2026-05-03 23:27 38.77856 -9.43271 10468 ft 283 kts 210°
2026-05-03 23:28 38.76110 -9.44419 10235 ft 282 kts 210°
2026-05-03 23:28 38.74367 -9.45570 10019 ft 281 kts 210°
2026-05-03 23:28 38.72631 -9.46715 9882 ft 281 kts 210°
2026-05-03 23:28 38.70890 -9.47860 9744 ft 281 kts 210°
2026-05-03 23:29 38.69149 -9.49005 9614 ft 281 kts 210°
2026-05-03 23:29 38.67434 -9.50133 9486 ft 281 kts 210°
2026-05-03 23:29 38.65685 -9.51281 8961 ft 287 kts 210°
2026-05-03 23:29 38.63931 -9.52428 8517 ft 277 kts 210°
2026-05-03 23:30 38.62279 -9.53500 8375 ft 256 kts 210°
2026-05-03 23:30 38.60717 -9.54480 8138 ft 244 kts 204°
2026-05-03 23:30 38.59061 -9.54995 8112 ft 248 kts 188°
2026-05-03 23:30 38.57341 -9.54823 8075 ft 251 kts 165°
2026-05-03 23:31 38.55822 -9.53748 7948 ft 253 kts 138°
2026-05-03 23:31 38.54838 -9.51902 7822 ft 254 kts 109°
2026-05-03 23:31 38.54615 -9.49687 7613 ft 254 kts 82°
2026-05-03 23:31 38.54855 -9.47500 7215 ft 251 kts 79°
2026-05-03 23:32 38.55117 -9.45308 6774 ft 249 kts 80°
2026-05-03 23:32 38.55381 -9.43133 6310 ft 247 kts 80°
2026-05-03 23:32 38.55641 -9.40968 5833 ft 245 kts 80°
2026-05-03 23:32 38.55892 -9.38836 5513 ft 237 kts 80°
2026-05-03 23:33 38.56138 -9.36740 5464 ft 240 kts 79°
2026-05-03 23:33 38.56385 -9.34633 5407 ft 236 kts 80°
2026-05-03 23:33 38.56621 -9.32607 5335 ft 226 kts 79°
2026-05-03 23:33 38.56970 -9.30702 5235 ft 217 kts 65°
2026-05-03 23:34 38.57558 -9.28911 4917 ft 220 kts 60°
2026-05-03 23:34 38.58503 -9.27415 4526 ft 215 kts 38°
2026-05-03 23:34 38.59610 -9.26155 4169 ft 211 kts 38°
2026-05-03 23:34 38.60685 -9.24926 3919 ft 204 kts 38°
2026-05-03 23:35 38.61737 -9.23726 3616 ft 201 kts 38°
2026-05-03 23:35 38.62747 -9.22575 3322 ft 193 kts 38°
2026-05-03 23:35 38.63727 -9.21463 3044 ft 180 kts 35°
2026-05-03 23:35 38.64754 -9.20749 2874 ft 162 kts 19°
2026-05-03 23:36 38.65749 -9.20207 2723 ft 148 kts 19°
2026-05-03 23:36 38.66670 -9.19713 2515 ft 141 kts 18°
2026-05-03 23:36 38.67565 -9.19235 2304 ft 138 kts 18°
2026-05-03 23:36 38.68449 -9.18764 2112 ft 137 kts 18°
2026-05-03 23:37 38.69325 -9.18297 1924 ft 136 kts 18°
2026-05-03 23:37 38.70187 -9.17837 1746 ft 136 kts 18°
2026-05-03 23:37 38.71056 -9.17374 1565 ft 135 kts 19°
2026-05-03 23:37 38.71922 -9.16912 1380 ft 134 kts 18°
2026-05-03 23:38 38.72784 -9.16451 1193 ft 135 kts 18°
2026-05-03 23:38 38.73644 -9.15993 1015 ft 136 kts 19°
2026-05-03 23:38 38.74520 -9.15528 822 ft 137 kts 20°
2026-05-03 23:38 38.75408 -9.15045 659 ft 139 kts 19°
2026-05-03 23:39 38.76303 -9.14567 471 ft 140 kts 19°
2026-05-03 23:39 38.77182 -9.14094 364 ft 129 kts 16°
2026-05-03 23:39 38.77872 -9.13736 353 ft 75 kts 23°
2026-05-03 23:39 38.78135 -9.13593 360 ft 32 kts 22°
2026-05-03 23:40 38.78273 -9.13483 357 ft 18 kts 39°
2026-05-03 23:40 38.78344 -9.13392 358 ft 10 kts 47°
2026-05-03 23:40 38.78379 -9.13321 354 ft 9 kts 84°
2026-05-03 23:40 38.78348 -9.13262 360 ft 8 kts 162°
2026-05-03 23:41 38.78301 -9.13274 359 ft 6 kts 202°
2026-05-03 23:41 38.78265 -9.13293 357 ft 5 kts 202°
2026-05-03 23:41 38.78236 -9.13308 355 ft 4 kts 202°
2026-05-03 23:41 38.78212 -9.13320 356 ft 3 kts 202°
2026-05-03 23:42 38.78184 -9.13336 359 ft 8 kts 203°
2026-05-03 23:42 38.78140 -9.13360 354 ft 6 kts 203°
2026-05-03 23:42 38.78104 -9.13379 352 ft 5 kts 203°
2026-05-03 23:42 38.78078 -9.13393 355 ft 3 kts 202°
2026-05-03 23:43 38.78061 -9.13402 359 ft 2 kts 202°
2026-05-03 23:43 38.78053 -9.13406 354 ft 1 kts 202°
2026-05-03 23:43 38.78050 -9.13407 354 ft 2 kts 200°
2026-05-03 23:43 38.78001 -9.13410 352 ft 12 kts 171°
2026-05-03 23:44 38.77890 -9.13379 352 ft 19 kts 166°
2026-05-03 23:44 38.77756 -9.13345 354 ft 20 kts 168°
2026-05-03 23:44 38.77621 -9.13321 354 ft 17 kts 178°
2026-05-03 23:44 38.77523 -9.13304 351 ft 12 kts 167°
2026-05-03 23:45 38.77443 -9.13283 351 ft 11 kts 169°
2026-05-03 23:45 38.77370 -9.13265 359 ft 10 kts 171°
2026-05-03 23:45 38.77305 -9.13252 351 ft 9 kts 170°
2026-05-03 23:45 38.77250 -9.13239 351 ft 7 kts 169°
2026-05-03 23:46 38.77203 -9.13228 359 ft 6 kts 169°
2026-05-03 23:46 38.77164 -9.13218 354 ft 5 kts 169°
2026-05-03 23:46 38.77133 -9.13208 356 ft 4 kts 165°
2026-05-03 23:46 38.77109 -9.13200 351 ft 3 kts 165°
2026-05-03 23:47 38.77085 -9.13193 351 ft 7 kts 169°
2026-05-03 23:47 38.77010 -9.13174 351 ft 11 kts 169°
2026-05-03 23:47 38.76971 -9.13137 352 ft 6 kts 83°
2026-05-03 23:47 38.76981 -9.13090 353 ft 1 kts 79°
2026-05-03 23:48 38.76982 -9.13083 355 ft 0 kts 79°